Find Starlink 30178

NORAD ID: 57447 Int'l Des: 2023-105 Owner: SPXS Country: US Constellation: starlink operational
LEOCIRCULAR

当前视图

正在加载3D地球...

About Starlink 30178

Starlink 30178 (NORAD 57447) is a starlink constellation satellite (v2 mini) launched Jul 24, 2023 by SPXS of US. It operates in LEO, CIRCULAR orbit with a mass of 730.00 kg.

关于 Starlink 30178

正在加载描述...

即将过境

Passes for default location (London). Set your location on the main map for personalized predictions.

高度历史

Loading altitude history...

两行轨道根数

1 57447U 23105T 26170.91471579 .00001626 00000-0 68604-4 0 9990
2 57447 43.0041 42.7223 0001425 263.1773 96.8916 15.27579448161214
Epoch: Jun 19, 2026 • Age: 12 hours

当前状态

高度 483.9 km
速度 7.62 km/s
星下点 -7.56°S, 172.9°E
发射日期 Jul 24, 2023
运行时间 2.9 years
类型 internet

技术详情

分类 Payload
质量 730.00 kg
干质量 700.00 kg
总质量 730.00 kg
长度 0.30 m
直径 4.10 m
跨度 29.00 m
形状 Box + pan
制造商 SPXS
平台类型 Starlink V2M
阶段状态 In Orbit
所有者/国家 SPXS/US

Most Searched